Simultaneous Nadir Overpasses (SNOs) Predictions

Prediction of SNOs between FY3D and TERRA Satellite Orbit:

Table of predicted SNOs for the next 14.0 days since TLE Epoch: 7/29/2023
Index Date (FY3D) Time (FY3D) Lat,Lon (FY3D) SZA (FY3D ) Date (TERRA) Time (TERRA) Lat,Lon (TERRA) SZA (TERRA ) Distance(km) Time Diff (sec)
1 07/31/2023 12:44:48 -73.80, 168.81 124.53 07/31/2023 12:45:19 -73.81, 168.75 124.52 2.22 31
2 07/31/2023 13:35:34 73.74, -23.73 55.42 07/31/2023 13:34:41 73.76, -23.70 55.44 2.42 53
3 08/03/2023 00:48:55 73.82, 167.77 56.13 08/03/2023 00:49:17 73.82, 167.74 56.12 1.05 22
4 08/03/2023 01:39:38 -73.76, -24.77 123.93 08/03/2023 01:38:41 -73.78, -24.68 123.91 3.55 57
5 08/05/2023 12:52:59 -73.85, 166.73 123.19 08/05/2023 12:53:16 -73.86, 166.82 123.17 3.37 17
6 08/05/2023 13:43:44 73.74, -25.71 56.72 08/05/2023 13:42:39 73.76, -25.73 56.74 2.28 65
7 08/08/2023 00:06:33 -74.62, -3.56 121.71 08/08/2023 00:07:38 -74.54, -0.31 121.82 96.68 65
8 08/08/2023 00:57:04 73.84, 165.76 57.50 08/08/2023 00:57:13 73.82, 165.71 57.48 2.46 9
9 08/08/2023 01:47:47 -73.77, -26.76 122.56 08/08/2023 01:46:37 -73.78, -26.72 122.55 1.76 70
10 08/10/2023 12:10:32 74.28, -3.65 58.66 08/10/2023 12:11:42 74.17, -2.19 58.53 45.86 70
11 08/10/2023 13:01:08 -73.87, 164.71 121.76 08/10/2023 13:01:11 -73.86, 164.79 121.76 2.41 3



Historial Predications of SNOs between FY3D and TERRA
